Simultaneous Nadir Overpasses (SNOs) Predictions

Prediction of SNOs between FY3D and TERRA Satellite Orbit:

Table of predicted SNOs for the next 14.0 days since TLE Epoch: 8/26/2022
Index Date (FY3D) Time (FY3D) Lat,Lon (FY3D) SZA (FY3D ) Date (TERRA) Time (TERRA) Lat,Lon (TERRA) SZA (TERRA ) Distance(km) Time Diff (sec)
1 08/29/2022 11:26:06 72.30, 7.62 62.94 08/29/2022 11:27:17 72.19, 8.49 62.83 31.77 71
2 08/29/2022 12:16:43 -71.90, 175.72 117.46 08/29/2022 12:16:50 -71.92, 175.64 117.44 3.19 7
3 08/29/2022 13:07:28 71.82, -16.83 62.49 08/29/2022 13:06:17 71.81, -16.89 62.47 2.20 71
4 09/01/2022 02:53:06 -72.19, -43.89 116.23 09/01/2022 02:54:18 -72.10, -43.44 116.31 17.97 72
5 09/01/2022 03:43:47 71.92, 123.94 63.52 09/01/2022 03:43:46 71.95, 123.93 63.54 3.10 1
6 09/01/2022 04:34:29 -71.76, -68.46 116.63 09/01/2022 04:33:17 -71.78, -68.72 116.61 9.22 72
7 09/03/2022 18:20:06 72.01, -95.28 64.56 09/03/2022 18:21:16 72.01, -95.35 64.57 2.35 70
8 09/03/2022 19:10:50 -71.95, 72.14 115.49 09/03/2022 19:10:45 -71.96, 72.19 115.48 1.77 5
9 09/03/2022 20:01:28 71.53,-119.77 64.11 09/03/2022 20:00:17 71.58,-120.81 64.15 36.92 71
10 09/06/2022 09:47:09 -72.05,-147.08 114.43 09/06/2022 09:48:15 -72.02,-147.10 114.45 2.49 66
11 09/06/2022 10:37:53 71.94, 20.43 65.49 09/06/2022 10:37:41 71.97, 20.44 65.51 2.82 12
12 09/06/2022 11:28:28 -71.41,-171.29 115.03 09/06/2022 11:27:18 -71.48,-172.74 114.97 51.78 70
13 09/09/2022 01:14:11 72.04, 161.19 66.56 09/09/2022 01:15:10 72.02, 161.13 66.54 3.13 59
14 09/09/2022 02:04:55 -71.97, -31.36 113.50 09/09/2022 02:04:39 -71.97, -31.32 113.50 1.43 16



Historial Predications of SNOs between FY3D and TERRA
